Погода в Халясавэй

Россия / Ямало-Ненецкий автономный округ     63°22′56″N   78°19′31″E
темп.,
°C
ветер,
м/с
пор.,
м/с
влажн.,
%
обл.,
%
осадки,
мм/ч
давл.,
гПа
погр.,
м
23 апреля, пт
пт2323:00−4ююз612875 0.0 1040148
02:00−5ююз612865 0.0 1039147
05:00−5ююз6128617 0.0 1039168
08:00−1ю8148572 0.0 1038376
11:00+1ю9159458 0.0 1038421
14:00+2ю9169640 0.0 1037457
17:00+2ююз817877 0.0 1036401
20:00+1ю815805 0.0 1036264
24 апреля, сб
сб2423:000ю815825 0.0 1035235
02:00−1ю713875 0.0 1033203
05:00−2ю7138975 0.0 1032216
08:000ю71294100 0.1 1030272
11:00+1ююз61297100 1.2 1029310
14:00+1ююз611100100 1.3 1028382
17:00+1юз4799100 1.4 1028206
20:00+1зюз3399100 0.2 102879
25 апреля, вс
вс2523:00+1з2399100 0.3 102854
02:000зюз11100100 0.7 102819
05:000зюз11100100 0.8 102931
08:00+1с11100100 0.1 102928
11:00+1в11100100 0.1 102953
14:00+2в22100100 0.0 102975
17:00+2в33100100 0.0 102992
20:00+1вюв3599100 0.0 1029118
26 апреля, пн
пн2623:00+1вюв4699100 0.0 1028121
02:00+1юв4696100 0.0 1026120
05:00+1юв489798 0.0 1025157
08:00+2юв599985 0.0 1023261
11:00+3юв7109665 0.0 1021401
14:00+6юв71183100 0.0 1019668
17:00+5вюв71381100 0.0 1016383
20:00+3вюв7138897 0.0 1014279
27 апреля, вт
вт2723:00+3вюв71490100 0.0 1011384
02:00+3юв71493100 0.0 1009551
05:00+3юв61298100 0.5 1008510
08:00+2юв51098100 0.5 1007490
11:00+3ююз358942 0.6 1007222
14:00+5ююз587497 0.0 1008398
17:00+6ююз7107531 0.1 1007976
20:00+3юз71294100 0.1 1007560